GFSNE_prec_pwat_087.txt.gz
Precipitable_Water
1.07 1.09 1.09 1.07 1.13 1.10 1.09 1.03 0.90 0.79 0.86 0.97 0.98 1.14 1.19 1.18 1.19 1.15 1.14 1.13 1.13 1.11 1.09 1.12 1.16 1.15 1.14 1.15 1.16 1.17 1.18 1.18 1.18 1.18 1.18 1.18 1.17 1.20
1.10 1.15 1.13 1.13 1.15 1.17 1.11 1.11 1.06 0.97 0.87 1.02 1.05 1.14 1.18 1.21 1.22 1.20 1.17 1.17 1.17 1.15 1.14 1.14 1.15 1.14 1.14 1.14 1.15 1.15 1.15 1.15 1.14 1.15 1.16 1.16 1.16 1.18
1.10 1.10 1.13 1.15 1.16 1.17 1.19 1.14 1.11 1.09 0.98 1.03 1.08 1.14 1.12 1.15 1.16 1.15 1.15 1.14 1.14 1.12 1.12 1.14 1.14 1.13 1.12 1.11 1.11 1.11 1.10 1.10 1.11 1.12 1.15 1.16 1.13 1.11
1.09 1.08 1.10 1.12 1.14 1.16 1.16 1.12 1.10 1.11 1.02 0.94 1.00 1.03 1.04 1.05 1.07 1.06 1.07 1.11 1.11 1.13 1.13 1.11 1.11 1.11 1.09 1.08 1.09 1.09 1.09 1.08 1.10 1.11 1.12 1.09 1.08 1.07
1.10 1.10 1.09 1.12 1.09 1.10 1.09 1.06 1.04 1.04 1.04 1.00 0.96 1.01 1.01 1.04 1.01 1.04 1.04 1.07 1.12 1.12 1.10 1.08 1.07 1.07 1.06 1.07 1.07 1.08 1.07 1.06 1.07 1.09 1.08 1.05 1.04 1.04
1.09 1.08 1.10 1.11 1.09 1.09 1.07 1.05 1.04 1.03 1.03 0.99 0.95 0.92 0.95 1.00 1.04 0.97 0.96 1.04 1.01 1.07 1.10 1.11 1.09 1.07 1.06 1.06 1.07 1.06 1.06 1.07 1.05 1.03 1.05 1.06 1.08 1.11
1.05 1.05 1.05 1.06 1.06 1.07 1.03 1.00 1.01 0.97 0.95 0.91 0.89 0.89 0.87 0.89 0.90 0.97 0.93 0.95 0.97 1.02 0.97 1.00 1.02 1.05 1.07 1.06 1.05 1.03 1.01 1.01 1.02 1.04 1.06 1.07 1.10 1.10
0.98 1.02 1.06 1.08 1.08 1.09 1.08 1.08 1.08 1.01 0.96 0.94 0.92 0.89 0.91 0.96 0.99 0.96 0.94 0.88 0.79 1.02 0.95 0.94 0.95 0.89 0.90 0.90 0.90 0.94 0.97 0.99 1.01 1.01 1.02 1.02 1.01 1.00
1.06 1.07 1.08 1.11 1.13 1.13 1.14 1.15 1.15 1.15 1.14 1.08 0.99 0.99 0.98 1.02 1.02 0.98 0.98 0.97 0.94 0.97 0.97 0.88 0.89 0.86 0.88 0.89 0.89 0.90 0.91 0.91 0.93 0.94 0.94 0.93 0.92 0.92
1.13 1.11 1.12 1.13 1.13 1.13 1.14 1.14 1.14 1.09 1.09 1.09 1.05 1.01 1.00 1.03 1.05 1.02 1.00 0.98 0.96 0.97 0.95 0.83 0.87 0.86 0.88 0.89 0.88 0.87 0.87 0.85 0.84 0.84 0.84 0.82 0.81 0.81
1.10 1.10 1.09 1.09 1.09 1.11 1.09 1.08 1.05 1.01 1.02 1.03 1.03 1.00 0.97 0.95 0.96 0.97 0.91 0.87 0.84 0.84 0.86 0.81 0.79 0.77 0.79 0.77 0.79 0.79 0.78 0.75 0.74 0.74 0.72 0.71 0.71 0.72
1.00 1.00 1.00 1.01 1.01 1.01 1.01 1.01 0.95 0.93 0.93 0.89 0.90 0.90 0.89 0.88 0.88 0.87 0.83 0.77 0.74 0.70 0.71 0.71 0.67 0.67 0.63 0.68 0.66 0.68 0.65 0.63 0.63 0.63 0.62 0.61 0.62 0.62
0.91 0.90 0.89 0.89 0.89 0.92 0.94 0.89 0.87 0.83 0.84 0.76 0.77 0.75 0.67 0.65 0.68 0.69 0.69 0.63 0.58 0.56 0.61 0.61 0.59 0.60 0.57 0.54 0.57 0.59 0.58 0.57 0.57 0.56 0.56 0.56 0.55 0.54
0.66 0.66 0.65 0.64 0.64 0.64 0.63 0.62 0.59 0.57 0.56 0.53 0.49 0.47 0.47 0.48 0.49 0.50 0.50 0.50 0.50 0.48 0.51 0.53 0.49 0.48 0.47 0.46 0.46 0.50 0.51 0.50 0.50 0.48 0.47 0.46 0.45 0.44
0.49 0.48 0.49 0.48 0.47 0.47 0.46 0.47 0.47 0.46 0.44 0.42 0.41 0.42 0.43 0.43 0.44 0.44 0.45 0.43 0.42 0.42 0.42 0.43 0.42 0.42 0.42 0.40 0.38 0.38 0.36 0.36 0.36 0.33 0.32 0.31 0.30 0.29
0.43 0.43 0.42 0.42 0.41 0.41 0.41 0.41 0.41 0.40 0.40 0.38 0.38 0.39 0.40 0.39 0.38 0.38 0.37 0.38 0.35 0.33 0.33 0.32 0.32 0.31 0.29 0.28 0.27 0.26 0.25 0.22 0.22 0.21 0.21 0.21 0.21 0.20
0.40 0.40 0.38 0.37 0.36 0.36 0.36 0.37 0.37 0.38 0.37 0.37 0.37 0.36 0.34 0.33 0.31 0.31 0.30 0.29 0.26 0.25 0.24 0.24 0.23 0.22 0.21 0.20 0.19 0.17 0.16 0.15 0.15 0.15 0.15 0.14 0.15 0.15
0.36 0.35 0.34 0.34 0.33 0.33 0.33 0.33 0.33 0.33 0.33 0.32 0.31 0.30 0.28 0.26 0.24 0.23 0.23 0.22 0.20 0.19 0.18 0.18 0.17 0.16 0.15 0.15 0.15 0.14 0.14 0.13 0.13 0.13 0.13 0.13 0.12 0.13
0.33 0.32 0.31 0.31 0.31 0.31 0.30 0.29 0.27 0.26 0.24 0.22 0.21 0.20 0.20 0.19 0.18 0.16 0.16 0.16 0.15 0.14 0.14 0.14 0.13 0.13 0.12 0.11 0.12 0.13 0.12 0.12 0.12 0.12 0.13 0.12 0.12 0.12
0.31 0.30 0.29 0.29 0.28 0.25 0.23 0.20 0.19 0.18 0.17 0.17 0.16 0.16 0.15 0.15 0.14 0.13 0.13 0.12 0.12 0.11 0.11 0.10 0.10 0.10 0.10 0.10 0.10 0.11 0.13 0.11 0.11 0.11 0.11 0.12 0.12 0.13
0.27 0.25 0.23 0.20 0.18 0.17 0.16 0.15 0.15 0.14 0.13 0.12 0.12 0.11 0.11 0.11 0.10 0.10 0.10 0.09 0.09 0.09 0.08 0.09 0.09 0.10 0.11 0.11 0.10 0.09 0.10 0.12 0.11 0.11 0.11 0.11 0.10 0.11
0.15 0.14 0.14 0.13 0.13 0.13 0.12 0.12 0.11 0.11 0.10 0.10 0.10 0.10 0.10 0.10 0.10 0.09 0.09 0.09 0.09 0.09 0.09 0.09 0.10 0.10 0.10 0.09 0.08 0.09 0.09 0.09 0.11 0.12 0.13 0.13 0.13 0.11
0.13 0.13 0.13 0.12 0.12 0.12 0.11 0.11 0.10 0.09 0.09 0.09 0.09 0.09 0.09 0.09 0.09 0.09 0.09 0.09 0.09 0.09 0.09 0.09 0.09 0.09 0.09 0.08 0.08 0.08 0.08 0.08 0.09 0.10 0.12 0.16 0.17 0.18

GFSNE_prec_pwat_090.txt.gz
Precipitable_Water
1.16 1.09 1.09 1.14 1.17 1.11 1.10 1.01 0.94 0.81 0.82 0.95 0.97 1.11 1.13 1.14 1.14 1.16 1.17 1.16 1.16 1.13 1.12 1.11 1.12 1.14 1.14 1.11 1.11 1.14 1.15 1.18 1.19 1.18 1.19 1.20 1.22 1.22
1.15 1.12 1.06 1.08 1.15 1.13 1.15 1.09 1.06 0.98 0.90 1.01 1.04 1.17 1.17 1.15 1.16 1.19 1.17 1.19 1.18 1.16 1.15 1.14 1.13 1.13 1.14 1.14 1.12 1.13 1.16 1.16 1.15 1.14 1.14 1.15 1.15 1.16
1.10 1.11 1.06 1.10 1.07 1.11 1.15 1.05 1.04 1.05 0.97 1.04 1.15 1.17 1.19 1.17 1.14 1.16 1.14 1.13 1.13 1.10 1.11 1.11 1.12 1.12 1.10 1.10 1.11 1.12 1.11 1.12 1.12 1.10 1.10 1.12 1.13 1.13
1.10 1.10 1.02 1.01 0.94 1.09 1.13 1.08 1.10 1.14 1.04 0.98 1.06 1.04 1.04 1.07 1.10 1.11 1.12 1.14 1.12 1.11 1.08 1.06 1.05 1.06 1.08 1.09 1.10 1.08 1.08 1.08 1.08 1.08 1.09 1.11 1.11 1.12
1.11 1.07 1.00 0.97 1.00 1.04 1.05 1.05 1.08 1.10 1.08 1.02 0.94 1.03 1.04 1.06 1.08 1.13 1.14 1.17 1.18 1.14 1.12 1.11 1.10 1.08 1.08 1.09 1.10 1.09 1.09 1.07 1.05 1.05 1.06 1.08 1.09 1.07
1.08 1.05 1.04 1.03 1.02 1.05 1.08 1.06 1.06 1.08 1.06 1.00 0.95 0.92 0.95 0.98 1.02 0.95 0.93 1.01 1.02 1.10 1.15 1.15 1.14 1.14 1.13 1.10 1.08 1.07 1.05 1.04 1.03 1.03 1.04 1.05 1.06 1.06
1.08 1.03 1.01 1.01 1.06 1.07 1.06 1.05 1.08 1.03 1.00 0.96 0.93 0.92 0.90 0.91 0.93 0.99 0.96 0.98 1.01 1.09 1.08 1.08 1.05 1.03 1.00 0.97 0.96 0.97 0.99 1.01 1.02 1.03 1.00 0.99 1.00 1.00
1.03 1.07 1.09 1.09 1.10 1.11 1.12 1.12 1.12 1.06 1.02 1.02 1.00 0.98 1.01 1.06 1.07 1.05 1.02 0.99 0.92 1.12 1.03 1.01 1.04 1.00 1.00 0.99 0.96 0.96 0.98 0.99 1.01 1.01 1.00 1.00 0.99 0.99
1.09 1.10 1.11 1.15 1.17 1.18 1.18 1.18 1.18 1.15 1.13 1.09 1.02 1.03 1.00 1.03 1.04 1.02 1.03 1.02 0.97 1.03 1.00 0.95 1.00 0.93 0.94 0.96 0.98 0.95 0.93 0.90 0.89 0.90 0.90 0.88 0.89 0.87
1.05 1.06 1.06 1.07 1.08 1.10 1.11 1.10 1.10 1.11 1.11 1.10 1.05 1.03 1.03 1.05 1.03 1.02 1.00 0.98 0.98 0.95 0.95 0.85 0.90 0.86 0.87 0.87 0.87 0.87 0.83 0.81 0.79 0.80 0.82 0.82 0.81 0.81
1.06 1.07 1.08 1.08 1.09 1.12 1.11 1.05 1.04 1.02 1.01 0.98 0.99 1.00 0.99 0.96 0.97 0.96 0.89 0.87 0.81 0.78 0.78 0.74 0.73 0.72 0.72 0.70 0.73 0.72 0.69 0.68 0.68 0.67 0.67 0.67 0.68 0.69
1.01 1.01 1.00 1.00 1.02 1.03 1.03 0.99 0.93 0.92 0.90 0.90 0.83 0.90 0.84 0.85 0.78 0.77 0.74 0.62 0.59 0.53 0.57 0.54 0.54 0.54 0.49 0.55 0.56 0.58 0.58 0.57 0.57 0.57 0.57 0.56 0.56 0.57
0.92 0.92 0.90 0.90 0.89 0.90 0.89 0.83 0.79 0.74 0.73 0.70 0.65 0.62 0.57 0.53 0.52 0.52 0.51 0.50 0.45 0.43 0.47 0.48 0.46 0.46 0.45 0.43 0.46 0.48 0.49 0.48 0.49 0.48 0.49 0.48 0.47 0.46
0.73 0.71 0.68 0.65 0.63 0.60 0.57 0.54 0.53 0.52 0.50 0.47 0.46 0.45 0.44 0.44 0.44 0.43 0.43 0.43 0.43 0.41 0.43 0.45 0.41 0.41 0.40 0.39 0.38 0.42 0.42 0.42 0.40 0.37 0.37 0.35 0.34 0.33
0.49 0.48 0.47 0.47 0.47 0.46 0.46 0.46 0.46 0.45 0.43 0.40 0.39 0.38 0.39 0.40 0.41 0.41 0.41 0.40 0.37 0.35 0.34 0.35 0.36 0.36 0.35 0.35 0.33 0.33 0.30 0.28 0.29 0.25 0.25 0.26 0.25 0.25
0.46 0.45 0.44 0.44 0.43 0.43 0.42 0.42 0.41 0.40 0.38 0.37 0.36 0.37 0.37 0.36 0.34 0.34 0.33 0.33 0.31 0.29 0.27 0.25 0.24 0.24 0.23 0.22 0.22 0.21 0.20 0.18 0.19 0.19 0.18 0.19 0.20 0.21
0.44 0.43 0.41 0.39 0.38 0.37 0.36 0.36 0.36 0.36 0.35 0.35 0.34 0.32 0.31 0.30 0.28 0.28 0.27 0.26 0.23 0.21 0.20 0.20 0.19 0.18 0.16 0.16 0.16 0.15 0.15 0.14 0.15 0.15 0.15 0.15 0.16 0.17
0.39 0.36 0.34 0.34 0.33 0.32 0.32 0.31 0.31 0.30 0.29 0.28 0.28 0.26 0.24 0.22 0.20 0.20 0.20 0.19 0.17 0.16 0.15 0.15 0.16 0.16 0.15 0.16 0.14 0.12 0.13 0.12 0.13 0.13 0.13 0.13 0.12 0.14
0.34 0.33 0.32 0.31 0.30 0.29 0.28 0.27 0.25 0.23 0.22 0.20 0.20 0.19 0.19 0.18 0.17 0.17 0.17 0.16 0.15 0.14 0.13 0.12 0.12 0.12 0.11 0.11 0.13 0.12 0.10 0.11 0.12 0.12 0.13 0.12 0.12 0.13
0.31 0.29 0.28 0.28 0.26 0.23 0.21 0.19 0.19 0.18 0.18 0.17 0.17 0.16 0.16 0.16 0.15 0.14 0.13 0.12 0.12 0.11 0.11 0.10 0.10 0.10 0.10 0.10 0.10 0.13 0.15 0.12 0.12 0.12 0.12 0.13 0.14 0.16
0.24 0.22 0.21 0.19 0.18 0.17 0.17 0.16 0.16 0.15 0.14 0.14 0.14 0.13 0.13 0.13 0.12 0.12 0.12 0.11 0.10 0.11 0.10 0.09 0.09 0.10 0.11 0.12 0.11 0.11 0.12 0.14 0.13 0.11 0.12 0.11 0.11 0.13
0.16 0.15 0.15 0.15 0.15 0.15 0.15 0.14 0.14 0.13 0.12 0.12 0.12 0.12 0.12 0.12 0.11 0.11 0.10 0.10 0.10 0.09 0.09 0.09 0.10 0.09 0.09 0.09 0.09 0.09 0.10 0.12 0.13 0.13 0.14 0.13 0.13 0.12
0.14 0.14 0.13 0.13 0.13 0.13 0.12 0.12 0.11 0.11 0.10 0.10 0.10 0.10 0.10 0.10 0.10 0.10 0.10 0.09 0.09 0.08 0.08 0.08 0.09 0.09 0.09 0.09 0.09 0.09 0.10 0.09 0.10 0.11 0.13 0.16 0.18 0.20

GFSNE_prec_pwat_093.txt.gz
Precipitable_Water
1.14 1.19 1.16 1.19 1.18 1.14 1.16 1.03 0.92 0.82 0.82 1.01 1.02 1.10 1.12 1.17 1.18 1.17 1.17 1.16 1.14 1.14 1.13 1.12 1.12 1.12 1.13 1.12 1.12 1.12 1.12 1.15 1.14 1.14 1.14 1.15 1.20 1.23
1.18 1.19 1.22 1.22 1.21 1.17 1.11 1.10 1.10 0.98 0.83 0.99 1.07 1.18 1.22 1.17 1.21 1.22 1.18 1.16 1.15 1.14 1.13 1.10 1.12 1.10 1.09 1.11 1.13 1.13 1.14 1.14 1.14 1.14 1.13 1.14 1.17 1.19
1.09 1.12 1.19 1.24 1.18 1.12 1.11 1.09 1.04 1.12 0.94 0.98 1.03 1.06 1.09 1.23 1.25 1.25 1.22 1.17 1.17 1.14 1.12 1.09 1.06 1.03 1.04 1.06 1.07 1.09 1.12 1.12 1.11 1.12 1.12 1.15 1.15 1.16
1.18 1.21 1.18 1.20 1.13 1.09 1.12 1.04 1.06 1.05 1.02 0.93 0.99 1.01 1.07 1.13 1.11 1.14 1.18 1.15 1.12 1.12 1.13 1.13 1.13 1.11 1.09 1.09 1.10 1.08 1.06 1.07 1.09 1.10 1.09 1.08 1.07 1.08
1.23 1.17 1.07 1.06 1.06 1.07 1.01 0.97 0.94 1.00 1.04 0.99 0.96 1.04 1.06 1.09 1.07 1.06 1.07 1.10 1.14 1.15 1.15 1.11 1.12 1.13 1.14 1.12 1.11 1.10 1.09 1.08 1.09 1.10 1.10 1.07 1.07 1.07
1.26 1.19 1.12 1.13 1.02 0.99 0.95 0.91 0.91 0.95 0.97 0.95 0.95 0.94 1.02 1.05 1.04 0.95 0.95 1.05 1.06 1.15 1.19 1.17 1.17 1.11 1.08 1.10 1.09 1.08 1.07 1.09 1.09 1.10 1.08 1.06 1.05 1.03
1.17 1.13 1.13 1.14 1.12 1.06 0.99 0.93 0.92 0.93 0.96 0.96 0.96 0.99 0.99 1.01 1.01 1.08 1.04 1.05 1.12 1.15 1.13 1.12 1.12 1.12 1.08 1.07 1.05 1.04 1.04 1.05 1.05 1.03 1.04 1.04 1.02 1.01
1.08 1.11 1.09 1.03 0.99 0.95 0.95 0.97 1.03 1.04 1.05 1.05 1.06 1.05 1.04 1.09 1.12 1.09 1.07 1.03 0.99 1.17 1.09 1.07 1.10 1.06 1.06 1.06 1.04 1.04 1.03 1.04 1.03 1.01 0.99 0.98 0.97 0.94
1.02 1.03 1.08 1.09 1.12 1.14 1.17 1.14 1.11 1.10 1.10 1.09 1.03 1.02 1.00 1.02 1.03 1.03 1.01 0.99 0.97 1.00 1.00 0.94 0.99 0.94 0.96 0.94 0.93 0.91 0.91 0.90 0.87 0.87 0.86 0.84 0.82 0.81
1.02 1.04 1.05 1.06 1.09 1.11 1.12 1.09 1.06 1.06 1.06 1.08 1.07 1.04 1.03 1.03 1.03 1.01 1.01 0.98 0.97 0.96 0.95 0.82 0.86 0.81 0.81 0.77 0.74 0.73 0.71 0.69 0.67 0.65 0.63 0.63 0.63 0.62
1.02 1.03 1.02 1.02 1.05 1.09 1.07 1.04 1.02 1.02 1.04 1.03 1.01 0.98 0.97 0.99 0.96 0.94 0.87 0.84 0.80 0.73 0.72 0.64 0.60 0.56 0.55 0.55 0.58 0.56 0.54 0.53 0.51 0.51 0.51 0.50 0.50 0.51
1.00 1.00 1.00 1.02 1.04 1.05 1.01 0.98 0.92 0.89 0.88 0.87 0.87 0.85 0.80 0.82 0.73 0.74 0.66 0.55 0.50 0.46 0.51 0.47 0.47 0.46 0.40 0.47 0.46 0.47 0.47 0.46 0.46 0.45 0.44 0.43 0.43 0.42
0.96 0.95 0.97 0.99 0.97 0.97 0.98 0.93 0.86 0.85 0.78 0.74 0.69 0.65 0.61 0.54 0.49 0.48 0.48 0.46 0.42 0.39 0.43 0.43 0.40 0.40 0.40 0.38 0.41 0.43 0.42 0.41 0.41 0.40 0.39 0.38 0.35 0.33
0.87 0.85 0.83 0.83 0.80 0.77 0.72 0.68 0.63 0.58 0.53 0.49 0.46 0.43 0.43 0.42 0.42 0.42 0.41 0.39 0.38 0.37 0.38 0.40 0.38 0.37 0.36 0.36 0.35 0.39 0.38 0.36 0.34 0.29 0.26 0.26 0.25 0.24
0.68 0.65 0.62 0.59 0.55 0.50 0.47 0.46 0.47 0.45 0.43 0.41 0.39 0.39 0.39 0.39 0.39 0.39 0.39 0.38 0.35 0.32 0.31 0.31 0.31 0.31 0.31 0.29 0.27 0.25 0.24 0.22 0.22 0.20 0.20 0.19 0.18 0.19
0.51 0.49 0.47 0.46 0.45 0.45 0.44 0.44 0.43 0.42 0.40 0.38 0.37 0.37 0.36 0.34 0.32 0.32 0.31 0.30 0.30 0.28 0.27 0.25 0.22 0.21 0.20 0.20 0.19 0.19 0.18 0.16 0.17 0.17 0.16 0.16 0.17 0.18
0.48 0.47 0.44 0.42 0.41 0.40 0.39 0.38 0.38 0.37 0.35 0.35 0.33 0.31 0.30 0.29 0.27 0.27 0.25 0.25 0.22 0.20 0.19 0.19 0.19 0.19 0.16 0.15 0.14 0.15 0.14 0.14 0.15 0.15 0.14 0.14 0.15 0.17
0.43 0.40 0.38 0.37 0.35 0.35 0.34 0.33 0.32 0.31 0.30 0.30 0.28 0.26 0.24 0.22 0.21 0.20 0.20 0.19 0.18 0.16 0.16 0.15 0.16 0.15 0.16 0.17 0.18 0.14 0.12 0.12 0.13 0.13 0.14 0.13 0.12 0.14
0.38 0.36 0.35 0.34 0.33 0.32 0.31 0.29 0.27 0.25 0.24 0.22 0.20 0.20 0.19 0.19 0.18 0.17 0.17 0.16 0.16 0.15 0.14 0.13 0.13 0.12 0.11 0.11 0.15 0.16 0.13 0.13 0.13 0.13 0.13 0.12 0.11 0.12
0.35 0.33 0.32 0.31 0.28 0.26 0.23 0.21 0.19 0.19 0.18 0.17 0.17 0.17 0.16 0.16 0.16 0.15 0.15 0.14 0.12 0.13 0.12 0.12 0.11 0.10 0.09 0.09 0.10 0.12 0.17 0.13 0.13 0.12 0.11 0.12 0.13 0.15
0.25 0.23 0.22 0.21 0.20 0.19 0.19 0.18 0.17 0.16 0.15 0.16 0.16 0.15 0.15 0.15 0.14 0.13 0.13 0.13 0.12 0.12 0.11 0.11 0.11 0.11 0.11 0.12 0.11 0.11 0.12 0.14 0.14 0.12 0.12 0.11 0.11 0.12
0.19 0.18 0.18 0.18 0.17 0.17 0.17 0.16 0.16 0.15 0.14 0.14 0.14 0.13 0.13 0.13 0.13 0.12 0.12 0.11 0.11 0.10 0.10 0.10 0.11 0.10 0.10 0.09 0.09 0.09 0.10 0.12 0.14 0.14 0.15 0.14 0.13 0.12
0.16 0.16 0.16 0.15 0.15 0.15 0.15 0.14 0.13 0.13 0.12 0.12 0.12 0.11 0.12 0.12 0.11 0.11 0.11 0.10 0.10 0.09 0.09 0.09 0.09 0.10 0.10 0.10 0.10 0.10 0.11 0.12 0.11 0.11 0.13 0.17 0.17 0.20

GFSNE_prec_pwat_096.txt.gz
Precipitable_Water
1.35 1.31 1.22 1.16 1.07 1.08 1.08 1.04 0.98 0.88 0.92 1.08 1.09 1.15 1.14 1.13 1.11 1.14 1.15 1.14 1.12 1.12 1.13 1.13 1.13 1.15 1.15 1.14 1.13 1.10 1.09 1.13 1.14 1.16 1.18 1.19 1.18 1.20
1.36 1.30 1.21 1.16 1.06 1.06 1.14 1.15 1.10 1.04 0.86 0.99 1.05 1.14 1.22 1.26 1.28 1.24 1.24 1.23 1.22 1.20 1.17 1.15 1.13 1.13 1.12 1.11 1.12 1.10 1.09 1.10 1.11 1.13 1.15 1.17 1.20 1.20
1.34 1.24 1.15 1.14 1.15 1.18 1.11 1.09 1.14 1.11 0.93 0.95 1.05 1.12 1.16 1.16 1.17 1.18 1.18 1.17 1.22 1.20 1.17 1.15 1.11 1.12 1.12 1.14 1.12 1.08 1.08 1.09 1.09 1.10 1.11 1.13 1.14 1.15
1.28 1.27 1.19 1.22 1.21 1.20 1.19 1.13 1.11 1.08 0.96 0.87 0.95 0.97 1.04 1.05 1.07 1.08 1.12 1.15 1.14 1.14 1.12 1.11 1.14 1.15 1.16 1.15 1.12 1.09 1.09 1.10 1.13 1.13 1.11 1.10 1.09 1.09
1.32 1.22 1.15 1.12 1.11 1.11 1.12 1.15 1.15 1.08 1.01 0.90 0.90 0.99 1.00 1.07 1.08 1.07 1.05 1.07 1.11 1.14 1.15 1.17 1.17 1.17 1.15 1.14 1.13 1.14 1.15 1.12 1.11 1.13 1.12 1.13 1.12 1.09
1.20 1.24 1.26 1.25 1.20 1.18 1.15 1.11 1.08 1.00 0.94 0.91 0.90 0.87 0.88 0.94 0.98 0.95 0.94 1.06 1.08 1.20 1.21 1.19 1.16 1.14 1.16 1.17 1.15 1.12 1.14 1.13 1.15 1.14 1.12 1.10 1.10 1.08
1.28 1.30 1.29 1.25 1.20 1.14 1.09 1.05 0.99 0.92 0.91 0.86 0.79 0.80 0.85 0.93 0.96 1.07 1.08 1.11 1.17 1.19 1.15 1.13 1.13 1.14 1.11 1.11 1.11 1.10 1.08 1.07 1.05 1.05 1.01 1.00 1.01 1.00
1.22 1.27 1.28 1.21 1.11 1.15 1.15 1.12 1.06 0.92 0.88 0.89 0.87 0.89 0.99 1.07 1.06 1.09 1.05 1.02 0.96 1.13 1.08 1.04 1.07 1.04 1.03 1.03 1.01 0.99 0.95 0.95 0.91 0.89 0.86 0.83 0.80 0.78
1.23 1.18 1.15 1.08 1.10 1.05 1.00 0.98 0.98 0.97 0.97 0.98 0.99 1.00 1.01 0.99 1.03 1.05 1.05 1.01 0.98 1.02 1.03 0.96 1.01 0.96 0.96 0.93 0.88 0.84 0.78 0.73 0.68 0.62 0.58 0.57 0.56 0.56
0.98 0.97 0.97 0.98 1.00 1.03 1.00 1.01 1.00 1.02 1.04 1.04 1.05 1.03 1.04 1.05 1.05 1.03 1.01 0.98 0.97 0.96 0.95 0.85 0.86 0.83 0.77 0.67 0.62 0.60 0.58 0.54 0.52 0.50 0.48 0.46 0.45 0.45
0.94 0.96 0.98 1.01 1.05 1.08 1.04 1.00 0.98 0.98 1.01 1.01 1.03 1.01 0.98 1.01 1.00 0.97 0.91 0.86 0.74 0.79 0.71 0.63 0.56 0.51 0.50 0.48 0.49 0.48 0.47 0.45 0.44 0.43 0.42 0.40 0.38 0.36
0.94 0.96 1.00 1.02 1.04 1.04 1.01 0.97 0.93 0.92 0.93 0.94 0.95 0.94 0.93 0.90 0.83 0.78 0.71 0.60 0.55 0.46 0.48 0.44 0.42 0.41 0.37 0.44 0.44 0.44 0.42 0.42 0.41 0.40 0.39 0.37 0.35 0.31
0.90 0.90 0.94 0.99 0.99 0.99 1.00 0.95 0.91 0.92 0.88 0.88 0.84 0.83 0.75 0.67 0.59 0.53 0.49 0.46 0.41 0.38 0.42 0.42 0.39 0.38 0.37 0.36 0.40 0.41 0.39 0.38 0.36 0.32 0.30 0.28 0.25 0.24
0.88 0.89 0.88 0.90 0.90 0.90 0.89 0.87 0.86 0.84 0.78 0.69 0.62 0.54 0.48 0.45 0.45 0.44 0.42 0.38 0.36 0.34 0.35 0.36 0.35 0.33 0.32 0.31 0.32 0.34 0.33 0.29 0.27 0.23 0.22 0.21 0.19 0.18
0.84 0.83 0.81 0.80 0.78 0.75 0.71 0.67 0.63 0.57 0.51 0.45 0.41 0.41 0.41 0.41 0.40 0.40 0.39 0.38 0.35 0.32 0.30 0.27 0.25 0.24 0.25 0.23 0.21 0.21 0.20 0.20 0.20 0.18 0.19 0.17 0.16 0.17
0.70 0.66 0.63 0.59 0.56 0.53 0.51 0.49 0.46 0.44 0.42 0.40 0.39 0.38 0.37 0.35 0.33 0.32 0.30 0.29 0.28 0.25 0.26 0.24 0.22 0.20 0.17 0.16 0.16 0.16 0.17 0.15 0.17 0.16 0.15 0.14 0.14 0.16
0.58 0.53 0.48 0.46 0.45 0.43 0.41 0.40 0.40 0.39 0.37 0.37 0.35 0.33 0.31 0.29 0.27 0.27 0.25 0.24 0.22 0.20 0.19 0.18 0.18 0.18 0.18 0.16 0.14 0.15 0.14 0.13 0.14 0.13 0.12 0.12 0.13 0.14
0.46 0.42 0.41 0.39 0.38 0.37 0.37 0.36 0.35 0.34 0.33 0.32 0.30 0.28 0.26 0.24 0.23 0.23 0.22 0.20 0.18 0.16 0.15 0.14 0.13 0.12 0.13 0.16 0.18 0.15 0.15 0.13 0.14 0.13 0.13 0.12 0.10 0.12
0.46 0.44 0.41 0.39 0.38 0.36 0.35 0.34 0.32 0.30 0.29 0.26 0.24 0.22 0.21 0.21 0.19 0.18 0.17 0.15 0.14 0.14 0.13 0.14 0.13 0.12 0.09 0.08 0.12 0.15 0.12 0.14 0.13 0.12 0.12 0.11 0.10 0.11
0.44 0.42 0.39 0.38 0.35 0.32 0.28 0.25 0.23 0.22 0.21 0.21 0.18 0.18 0.17 0.17 0.16 0.15 0.15 0.13 0.12 0.13 0.12 0.13 0.12 0.11 0.09 0.09 0.09 0.11 0.16 0.13 0.12 0.12 0.11 0.11 0.12 0.14
0.31 0.29 0.28 0.27 0.25 0.23 0.23 0.22 0.20 0.18 0.18 0.17 0.17 0.15 0.15 0.15 0.14 0.13 0.13 0.12 0.12 0.12 0.11 0.11 0.12 0.12 0.11 0.11 0.10 0.10 0.12 0.12 0.14 0.13 0.13 0.11 0.11 0.11
0.22 0.21 0.21 0.20 0.19 0.19 0.18 0.17 0.17 0.15 0.15 0.15 0.13 0.13 0.12 0.13 0.12 0.12 0.12 0.11 0.11 0.11 0.10 0.11 0.10 0.10 0.10 0.10 0.09 0.10 0.10 0.12 0.13 0.15 0.13 0.14 0.13 0.10
0.18 0.17 0.16 0.16 0.16 0.15 0.16 0.15 0.13 0.13 0.12 0.12 0.12 0.11 0.11 0.12 0.11 0.11 0.11 0.10 0.10 0.09 0.10 0.09 0.08 0.09 0.10 0.10 0.10 0.10 0.10 0.09 0.13 0.11 0.11 0.13 0.14 0.16

GFSNE_prec_pwat_102.txt.gz
Precipitable_Water
1.37 1.38 1.36 1.33 1.31 1.24 1.20 1.09 0.94 0.79 0.77 0.84 0.86 0.99 1.00 1.01 1.02 1.04 1.04 1.05 1.03 1.03 1.04 1.00 1.01 1.04 1.05 1.07 1.12 1.16 1.17 1.16 1.17 1.17 1.18 1.19 1.19 1.18
1.37 1.37 1.38 1.37 1.32 1.28 1.21 1.13 1.07 0.98 0.85 0.92 0.95 1.04 1.06 1.05 1.08 1.12 1.07 1.05 1.06 1.09 1.07 1.06 1.07 1.12 1.15 1.18 1.17 1.17 1.15 1.14 1.16 1.17 1.16 1.19 1.18 1.15
1.38 1.37 1.37 1.38 1.32 1.28 1.25 1.21 1.15 1.11 1.01 1.02 1.11 1.19 1.18 1.13 1.14 1.19 1.22 1.21 1.19 1.13 1.13 1.17 1.18 1.17 1.18 1.19 1.16 1.16 1.15 1.14 1.11 1.11 1.12 1.14 1.15 1.15
1.37 1.36 1.35 1.38 1.32 1.29 1.30 1.22 1.19 1.18 1.09 1.00 1.09 1.12 1.15 1.21 1.19 1.20 1.19 1.26 1.16 1.19 1.19 1.19 1.19 1.20 1.18 1.17 1.16 1.16 1.14 1.10 1.11 1.11 1.13 1.14 1.16 1.18
1.35 1.34 1.32 1.34 1.30 1.26 1.28 1.23 1.23 1.24 1.15 1.04 1.10 1.16 1.16 1.18 1.20 1.19 1.17 1.15 1.17 1.14 1.11 1.12 1.11 1.12 1.12 1.11 1.09 1.08 1.08 1.11 1.11 1.09 1.10 1.12 1.11 1.11
1.37 1.38 1.37 1.35 1.31 1.26 1.27 1.24 1.22 1.18 1.15 1.10 1.04 1.08 1.10 1.15 1.17 1.07 1.00 1.05 1.03 1.04 1.05 1.07 1.10 1.08 1.07 1.03 1.06 1.09 1.11 1.09 1.09 1.08 1.04 1.05 1.05 1.02
1.36 1.36 1.37 1.38 1.38 1.32 1.25 1.23 1.23 1.22 1.13 1.08 1.01 1.00 1.01 1.05 1.01 1.03 0.95 0.96 0.98 1.01 0.95 0.98 0.98 1.01 1.03 1.04 1.07 1.08 1.06 1.05 1.06 1.03 1.00 0.99 0.95 0.93
1.30 1.32 1.35 1.35 1.33 1.31 1.29 1.28 1.24 1.18 1.09 1.04 1.03 1.02 1.03 1.02 1.08 0.99 0.95 0.91 0.80 0.94 0.94 0.93 0.99 1.03 0.99 1.03 1.04 1.02 1.01 0.99 0.97 0.93 0.91 0.86 0.79 0.69
1.27 1.28 1.26 1.28 1.27 1.24 1.23 1.23 1.19 1.19 1.19 1.18 1.08 1.06 1.05 1.06 0.99 0.92 0.91 0.89 0.85 0.93 0.97 0.93 0.98 0.93 0.97 0.99 0.98 0.95 0.92 0.89 0.84 0.78 0.65 0.57 0.49 0.45
1.20 1.22 1.22 1.20 1.21 1.20 1.17 1.15 1.13 1.14 1.15 1.16 1.14 1.10 1.08 1.03 0.97 0.95 0.95 0.92 0.92 0.95 0.97 0.87 0.91 0.89 0.92 0.91 0.91 0.88 0.84 0.67 0.61 0.55 0.48 0.42 0.38 0.36
1.12 1.14 1.15 1.14 1.15 1.16 1.13 1.08 1.05 1.06 1.09 1.07 1.06 1.02 1.01 0.98 0.95 0.95 0.91 0.91 0.87 0.88 0.93 0.88 0.87 0.84 0.84 0.81 0.81 0.73 0.64 0.53 0.46 0.44 0.41 0.37 0.36 0.34
1.03 1.05 1.08 1.08 1.08 1.09 1.08 1.05 1.01 0.97 0.99 0.93 0.86 0.85 0.90 0.91 0.95 0.95 0.94 0.88 0.86 0.82 0.87 0.82 0.81 0.81 0.72 0.69 0.61 0.55 0.50 0.45 0.43 0.42 0.40 0.38 0.34 0.28
0.79 0.81 0.89 0.96 0.97 1.00 0.99 0.95 0.89 0.89 0.84 0.81 0.82 0.88 0.88 0.87 0.87 0.89 0.90 0.87 0.81 0.78 0.79 0.78 0.70 0.66 0.59 0.47 0.47 0.47 0.45 0.42 0.41 0.37 0.32 0.29 0.27 0.25
0.81 0.81 0.81 0.82 0.82 0.81 0.82 0.81 0.82 0.82 0.80 0.79 0.79 0.80 0.79 0.79 0.80 0.79 0.77 0.74 0.69 0.63 0.61 0.59 0.46 0.41 0.38 0.36 0.35 0.35 0.34 0.32 0.29 0.27 0.25 0.24 0.23 0.22
0.81 0.82 0.82 0.83 0.84 0.83 0.81 0.81 0.81 0.80 0.77 0.76 0.74 0.74 0.74 0.74 0.72 0.67 0.62 0.57 0.54 0.49 0.44 0.39 0.35 0.33 0.31 0.28 0.26 0.27 0.26 0.25 0.24 0.22 0.22 0.20 0.18 0.18
0.76 0.76 0.76 0.75 0.76 0.76 0.74 0.74 0.74 0.72 0.70 0.67 0.63 0.61 0.60 0.58 0.55 0.53 0.50 0.47 0.42 0.37 0.35 0.32 0.29 0.27 0.25 0.25 0.23 0.22 0.22 0.19 0.21 0.21 0.20 0.19 0.17 0.17
0.69 0.68 0.67 0.66 0.65 0.64 0.64 0.63 0.62 0.61 0.59 0.57 0.54 0.51 0.49 0.45 0.42 0.40 0.36 0.33 0.29 0.28 0.26 0.26 0.25 0.24 0.24 0.23 0.21 0.22 0.21 0.20 0.20 0.19 0.18 0.16 0.16 0.15
0.61 0.59 0.58 0.58 0.56 0.56 0.56 0.55 0.55 0.53 0.51 0.48 0.45 0.42 0.38 0.35 0.32 0.31 0.30 0.30 0.29 0.28 0.27 0.26 0.25 0.23 0.22 0.22 0.22 0.19 0.18 0.17 0.18 0.17 0.16 0.14 0.13 0.13
0.54 0.53 0.52 0.52 0.52 0.51 0.50 0.49 0.47 0.47 0.45 0.42 0.38 0.37 0.36 0.36 0.34 0.32 0.31 0.29 0.28 0.27 0.26 0.25 0.23 0.21 0.18 0.15 0.17 0.18 0.15 0.15 0.16 0.14 0.13 0.12 0.12 0.12
0.48 0.47 0.47 0.47 0.47 0.46 0.45 0.43 0.41 0.39 0.38 0.36 0.35 0.33 0.32 0.30 0.28 0.26 0.25 0.24 0.23 0.22 0.21 0.20 0.18 0.16 0.14 0.13 0.12 0.13 0.16 0.14 0.13 0.12 0.12 0.13 0.12 0.12
0.35 0.34 0.34 0.32 0.31 0.31 0.30 0.29 0.29 0.28 0.27 0.26 0.26 0.25 0.24 0.23 0.21 0.20 0.19 0.18 0.17 0.16 0.14 0.13 0.13 0.13 0.13 0.13 0.11 0.11 0.12 0.13 0.14 0.13 0.11 0.10 0.09 0.09
0.23 0.23 0.23 0.23 0.23 0.23 0.23 0.22 0.21 0.21 0.20 0.19 0.19 0.19 0.18 0.17 0.16 0.15 0.14 0.13 0.13 0.12 0.11 0.11 0.11 0.11 0.10 0.09 0.09 0.09 0.10 0.11 0.12 0.10 0.10 0.10 0.09 0.07
0.17 0.18 0.17 0.18 0.18 0.17 0.17 0.16 0.15 0.15 0.14 0.14 0.14 0.14 0.13 0.12 0.12 0.12 0.12 0.11 0.11 0.10 0.10 0.09 0.09 0.09 0.09 0.09 0.09 0.09 0.09 0.09 0.08 0.07 0.07 0.09 0.09 0.10

GFSNE_prec_pwat_105.txt.gz
Precipitable_Water
1.07 1.15 1.17 1.30 1.34 1.33 1.29 1.24 1.10 0.97 0.99 1.06 0.95 1.00 0.95 0.99 0.99 1.00 1.01 1.01 1.01 1.00 1.02 1.02 1.02 1.02 1.02 0.97 1.01 1.07 1.11 1.12 1.16 1.18 1.16 1.16 1.17 1.16
1.16 1.17 1.26 1.31 1.38 1.31 1.30 1.25 1.19 1.07 0.92 0.99 0.95 0.95 0.95 0.97 1.01 1.03 1.01 1.05 1.07 1.07 1.08 1.08 1.05 1.05 1.03 1.03 1.09 1.13 1.15 1.17 1.18 1.18 1.17 1.16 1.16 1.16
1.22 1.25 1.30 1.33 1.31 1.30 1.30 1.28 1.22 1.16 1.00 1.00 1.04 1.06 1.00 0.98 0.99 1.02 1.03 1.05 1.08 1.11 1.10 1.07 1.08 1.10 1.10 1.12 1.14 1.16 1.19 1.19 1.17 1.16 1.16 1.13 1.11 1.11
1.22 1.28 1.31 1.37 1.32 1.33 1.32 1.26 1.24 1.17 1.08 0.98 1.01 1.11 1.07 1.09 1.06 1.03 1.06 1.17 1.21 1.18 1.19 1.17 1.11 1.12 1.12 1.12 1.12 1.16 1.16 1.16 1.14 1.13 1.11 1.08 1.10 1.09
1.29 1.31 1.35 1.35 1.30 1.32 1.31 1.28 1.25 1.19 1.17 1.11 1.02 1.15 1.16 1.19 1.17 1.21 1.22 1.25 1.23 1.23 1.24 1.18 1.14 1.12 1.11 1.11 1.10 1.10 1.09 1.10 1.09 1.06 1.08 1.08 1.08 1.09
1.31 1.37 1.38 1.36 1.31 1.32 1.30 1.27 1.22 1.21 1.21 1.15 1.08 1.13 1.15 1.23 1.21 1.11 1.12 1.20 1.15 1.20 1.16 1.14 1.09 1.05 1.04 1.05 1.10 1.10 1.07 1.06 1.04 1.06 1.07 1.06 1.05 1.05
1.35 1.37 1.38 1.40 1.40 1.37 1.33 1.29 1.27 1.22 1.18 1.13 1.10 1.13 1.09 1.10 1.09 1.12 1.08 1.13 1.13 1.11 1.05 1.03 1.00 1.00 0.99 1.01 1.03 1.00 1.01 1.01 1.04 1.03 1.02 1.02 1.00 0.97
1.29 1.32 1.37 1.36 1.37 1.36 1.36 1.34 1.33 1.21 1.14 1.12 1.11 1.06 1.07 1.10 1.11 1.08 1.07 1.02 0.95 1.10 1.02 0.94 0.98 0.93 0.92 0.95 0.96 0.99 1.02 0.99 0.97 0.95 0.93 0.90 0.89 0.85
1.24 1.27 1.28 1.31 1.31 1.29 1.29 1.30 1.27 1.27 1.28 1.23 1.13 1.13 1.10 1.13 1.13 1.08 1.06 1.03 1.01 1.03 0.97 0.88 0.90 0.82 0.89 0.91 0.95 0.98 0.96 0.94 0.92 0.89 0.86 0.82 0.78 0.70
1.16 1.18 1.23 1.23 1.24 1.25 1.24 1.20 1.19 1.19 1.18 1.20 1.18 1.15 1.17 1.17 1.15 1.12 1.09 1.06 1.02 0.94 0.93 0.81 0.85 0.83 0.88 0.90 0.91 0.91 0.89 0.87 0.85 0.83 0.78 0.72 0.63 0.53
1.11 1.13 1.15 1.14 1.18 1.23 1.18 1.12 1.08 1.08 1.13 1.15 1.15 1.14 1.15 1.14 1.14 1.11 1.03 0.97 0.86 0.84 0.87 0.81 0.79 0.82 0.85 0.85 0.86 0.86 0.84 0.80 0.78 0.73 0.67 0.59 0.48 0.40
1.02 1.05 1.07 1.09 1.12 1.13 1.11 1.07 1.00 0.99 1.01 1.03 1.04 1.04 1.05 1.05 1.06 1.03 0.99 0.91 0.86 0.76 0.79 0.79 0.82 0.82 0.75 0.81 0.80 0.80 0.79 0.76 0.72 0.64 0.57 0.47 0.39 0.34
0.84 0.85 0.96 0.96 1.02 1.03 1.03 0.99 0.96 0.97 0.95 0.95 0.95 0.94 0.94 0.93 0.91 0.89 0.87 0.82 0.75 0.73 0.81 0.82 0.78 0.77 0.74 0.71 0.72 0.72 0.68 0.61 0.55 0.48 0.40 0.34 0.32 0.30
0.82 0.84 0.81 0.85 0.88 0.91 0.93 0.91 0.92 0.91 0.89 0.87 0.85 0.83 0.83 0.80 0.77 0.78 0.82 0.80 0.81 0.80 0.81 0.80 0.73 0.70 0.65 0.62 0.56 0.55 0.50 0.43 0.39 0.35 0.32 0.30 0.28 0.26
0.75 0.76 0.79 0.79 0.82 0.80 0.78 0.78 0.80 0.78 0.78 0.76 0.71 0.69 0.71 0.73 0.71 0.69 0.71 0.69 0.68 0.65 0.62 0.60 0.57 0.54 0.52 0.48 0.43 0.40 0.37 0.35 0.32 0.29 0.28 0.27 0.24 0.24
0.74 0.74 0.74 0.73 0.74 0.74 0.74 0.75 0.75 0.74 0.71 0.69 0.68 0.69 0.70 0.67 0.65 0.65 0.61 0.58 0.55 0.53 0.52 0.50 0.46 0.43 0.38 0.35 0.33 0.30 0.28 0.26 0.28 0.28 0.27 0.25 0.25 0.25
0.67 0.68 0.67 0.67 0.66 0.65 0.65 0.66 0.66 0.67 0.65 0.64 0.63 0.62 0.60 0.59 0.57 0.56 0.52 0.48 0.44 0.41 0.37 0.35 0.34 0.34 0.33 0.31 0.29 0.29 0.30 0.29 0.29 0.28 0.26 0.24 0.22 0.20
0.59 0.57 0.57 0.57 0.58 0.58 0.58 0.58 0.59 0.58 0.57 0.56 0.55 0.53 0.50 0.49 0.47 0.45 0.43 0.39 0.35 0.33 0.32 0.32 0.32 0.32 0.31 0.31 0.31 0.28 0.27 0.25 0.24 0.22 0.20 0.18 0.16 0.16
0.52 0.51 0.50 0.51 0.51 0.51 0.51 0.51 0.51 0.51 0.51 0.49 0.47 0.44 0.42 0.40 0.38 0.37 0.40 0.40 0.38 0.37 0.35 0.33 0.30 0.27 0.24 0.22 0.24 0.26 0.21 0.20 0.18 0.16 0.16 0.15 0.13 0.13
0.47 0.46 0.46 0.46 0.46 0.46 0.46 0.46 0.46 0.46 0.44 0.44 0.43 0.42 0.41 0.39 0.36 0.34 0.33 0.32 0.31 0.29 0.27 0.26 0.23 0.22 0.20 0.18 0.16 0.17 0.18 0.16 0.15 0.14 0.13 0.12 0.12 0.12
0.35 0.35 0.35 0.35 0.34 0.34 0.33 0.33 0.32 0.32 0.31 0.31 0.30 0.30 0.29 0.28 0.27 0.27 0.26 0.25 0.24 0.23 0.21 0.19 0.18 0.18 0.16 0.16 0.13 0.13 0.13 0.15 0.15 0.12 0.11 0.10 0.09 0.08
0.22 0.22 0.23 0.24 0.25 0.25 0.25 0.24 0.23 0.23 0.23 0.23 0.22 0.22 0.21 0.21 0.20 0.19 0.18 0.17 0.16 0.15 0.14 0.14 0.14 0.13 0.13 0.11 0.10 0.10 0.10 0.11 0.10 0.10 0.10 0.10 0.09 0.07
0.15 0.16 0.17 0.17 0.18 0.18 0.17 0.16 0.16 0.16 0.16 0.16 0.16 0.15 0.15 0.15 0.15 0.14 0.14 0.13 0.13 0.12 0.11 0.11 0.11 0.10 0.10 0.10 0.09 0.08 0.08 0.08 0.08 0.07 0.08 0.09 0.10 0.10

GFSNE_prec_pwat_111.txt.gz
Precipitable_Water
1.17 1.19 1.21 1.22 1.20 1.13 1.05 0.99 0.91 0.77 0.88 1.15 1.25 1.39 1.41 1.44 1.41 1.26 1.15 0.93 0.85 0.85 0.85 0.87 0.89 0.89 0.86 0.90 0.96 1.03 1.09 1.11 1.11 1.10 1.11 1.14 1.16 1.18
1.19 1.18 1.25 1.22 1.15 1.08 1.03 1.06 1.08 0.96 0.89 1.20 1.24 1.33 1.39 1.41 1.39 1.29 1.21 1.00 0.87 0.89 0.89 0.91 0.92 0.91 0.90 0.91 0.91 0.96 1.01 1.04 1.05 1.06 1.08 1.10 1.11 1.12
1.19 1.24 1.20 1.11 1.01 1.01 1.05 1.12 1.06 1.05 0.95 1.16 1.28 1.35 1.36 1.36 1.37 1.33 1.29 1.11 0.95 0.92 0.92 0.93 0.92 0.94 0.95 0.98 0.99 1.01 1.04 1.08 1.07 1.08 1.08 1.11 1.13 1.15
1.18 1.12 0.96 1.01 1.01 1.06 1.08 1.05 1.07 1.14 1.09 1.03 1.23 1.27 1.30 1.38 1.37 1.33 1.20 1.14 1.05 1.02 1.00 1.00 0.99 0.99 0.98 1.01 1.03 1.06 1.10 1.10 1.11 1.11 1.10 1.10 1.10 1.12
1.10 1.07 1.04 1.03 0.99 1.02 1.09 1.08 1.11 1.17 1.16 1.17 1.17 1.27 1.29 1.34 1.28 1.25 1.22 1.21 1.17 1.08 1.10 1.08 1.04 1.04 1.03 1.05 1.05 1.07 1.09 1.13 1.14 1.10 1.09 1.10 1.10 1.12
1.07 1.06 1.00 1.02 1.02 1.09 1.07 1.10 1.17 1.11 1.13 1.17 1.14 1.19 1.23 1.26 1.25 1.17 1.12 1.19 1.12 1.14 1.14 1.10 1.05 1.06 1.06 1.07 1.07 1.10 1.12 1.11 1.11 1.07 1.08 1.08 1.06 1.06
1.03 1.00 1.00 1.02 1.02 1.05 1.05 1.08 1.17 1.10 1.13 1.14 1.11 1.15 1.17 1.17 1.11 1.17 1.11 1.08 1.10 1.13 1.07 1.04 1.03 1.02 1.05 1.07 1.08 1.09 1.10 1.08 1.07 1.06 1.03 1.00 0.98 0.99
0.97 0.95 0.95 0.97 1.02 1.12 1.18 1.25 1.22 1.16 1.13 1.16 1.14 1.11 1.16 1.18 1.20 1.16 1.11 1.04 0.99 1.14 1.06 1.00 1.03 1.00 1.04 1.10 1.11 1.09 1.06 1.04 1.02 1.00 0.97 0.95 0.94 0.95
0.94 0.91 0.88 0.91 0.94 1.03 1.20 1.26 1.27 1.29 1.30 1.25 1.16 1.17 1.19 1.23 1.24 1.17 1.12 1.08 1.06 1.11 1.07 0.96 1.02 1.01 1.05 1.07 1.07 1.06 1.03 1.01 0.98 0.94 0.92 0.89 0.86 0.85
0.93 0.92 0.88 0.87 0.90 0.97 1.12 1.14 1.18 1.17 1.24 1.28 1.28 1.26 1.29 1.31 1.29 1.23 1.17 1.11 1.10 1.11 1.11 0.94 0.99 0.95 1.00 1.00 1.00 0.99 0.98 0.97 0.94 0.91 0.88 0.85 0.83 0.77
0.91 0.90 0.88 0.85 0.85 0.93 1.03 1.04 1.07 1.10 1.17 1.19 1.22 1.22 1.26 1.27 1.28 1.24 1.10 1.05 0.97 0.98 1.06 0.99 0.94 0.90 0.91 0.90 0.92 0.93 0.92 0.91 0.90 0.87 0.85 0.79 0.74 0.70
0.89 0.89 0.86 0.82 0.85 0.88 0.93 0.94 0.96 1.00 1.03 1.05 1.10 1.12 1.17 1.16 1.18 1.16 1.14 1.03 1.00 0.94 1.00 0.95 0.91 0.89 0.79 0.84 0.85 0.86 0.87 0.87 0.85 0.83 0.79 0.74 0.68 0.64
0.81 0.82 0.83 0.83 0.81 0.82 0.86 0.88 0.90 0.92 0.97 0.99 1.00 1.01 1.02 1.05 1.04 1.05 1.06 1.05 1.00 0.94 0.97 0.95 0.88 0.87 0.82 0.76 0.77 0.79 0.80 0.79 0.77 0.75 0.69 0.63 0.60 0.57
0.75 0.76 0.77 0.81 0.80 0.80 0.80 0.83 0.87 0.88 0.89 0.91 0.90 0.88 0.89 0.90 0.93 0.94 0.96 0.96 0.95 0.93 0.93 0.93 0.86 0.82 0.78 0.72 0.69 0.72 0.72 0.72 0.70 0.65 0.62 0.58 0.55 0.50
0.72 0.72 0.72 0.74 0.76 0.76 0.77 0.78 0.78 0.78 0.78 0.79 0.77 0.78 0.80 0.82 0.85 0.85 0.86 0.86 0.85 0.85 0.85 0.86 0.83 0.79 0.75 0.69 0.66 0.63 0.62 0.62 0.62 0.59 0.56 0.51 0.46 0.43
0.65 0.67 0.68 0.68 0.70 0.70 0.69 0.70 0.71 0.72 0.71 0.72 0.70 0.72 0.74 0.74 0.75 0.75 0.73 0.73 0.73 0.73 0.75 0.76 0.74 0.72 0.67 0.66 0.64 0.60 0.59 0.54 0.52 0.48 0.43 0.41 0.40 0.42
0.57 0.58 0.59 0.59 0.60 0.61 0.62 0.64 0.64 0.64 0.64 0.65 0.65 0.65 0.64 0.65 0.65 0.66 0.65 0.64 0.63 0.62 0.62 0.63 0.64 0.63 0.61 0.58 0.53 0.51 0.48 0.44 0.43 0.42 0.43 0.43 0.41 0.39
0.48 0.47 0.49 0.50 0.51 0.52 0.53 0.54 0.56 0.56 0.57 0.58 0.58 0.58 0.57 0.57 0.57 0.58 0.59 0.57 0.54 0.53 0.52 0.53 0.51 0.49 0.47 0.47 0.48 0.44 0.45 0.45 0.44 0.41 0.37 0.33 0.30 0.30
0.32 0.39 0.42 0.44 0.45 0.46 0.47 0.48 0.48 0.50 0.52 0.51 0.51 0.51 0.52 0.52 0.51 0.50 0.50 0.48 0.47 0.47 0.47 0.48 0.47 0.46 0.43 0.42 0.44 0.44 0.39 0.37 0.35 0.32 0.29 0.26 0.23 0.22
0.16 0.18 0.21 0.28 0.36 0.40 0.42 0.43 0.44 0.45 0.45 0.45 0.46 0.46 0.46 0.46 0.45 0.45 0.45 0.44 0.43 0.42 0.40 0.39 0.38 0.37 0.35 0.33 0.32 0.31 0.32 0.29 0.26 0.23 0.21 0.20 0.19 0.18
0.12 0.13 0.13 0.14 0.15 0.16 0.20 0.25 0.30 0.33 0.36 0.37 0.38 0.38 0.38 0.37 0.36 0.36 0.35 0.34 0.33 0.31 0.29 0.28 0.28 0.28 0.28 0.27 0.24 0.23 0.23 0.21 0.19 0.17 0.17 0.16 0.15 0.14
0.11 0.10 0.11 0.11 0.12 0.12 0.13 0.14 0.15 0.18 0.20 0.22 0.23 0.25 0.25 0.26 0.25 0.25 0.25 0.24 0.23 0.23 0.22 0.22 0.22 0.21 0.20 0.18 0.17 0.16 0.16 0.16 0.16 0.15 0.14 0.13 0.13 0.11
0.09 0.10 0.10 0.10 0.10 0.10 0.10 0.10 0.11 0.12 0.13 0.14 0.15 0.16 0.18 0.18 0.19 0.19 0.19 0.19 0.18 0.17 0.17 0.16 0.16 0.15 0.14 0.14 0.13 0.13 0.12 0.12 0.12 0.11 0.12 0.12 0.12 0.12

GFSNE_prec_pwat_114.txt.gz
Precipitable_Water
1.30 1.22 1.17 1.14 1.18 1.16 1.15 1.12 0.97 0.78 0.77 0.88 0.95 1.13 1.32 1.46 1.50 1.51 1.48 1.38 1.27 1.07 0.95 0.91 0.86 0.84 0.89 0.88 0.89 0.90 0.92 0.91 0.95 1.03 1.07 1.13 1.17 1.15
1.32 1.21 1.18 1.17 1.20 1.20 1.20 1.20 1.11 0.95 0.73 0.90 1.03 1.12 1.24 1.38 1.46 1.50 1.48 1.43 1.31 1.19 0.97 0.89 0.85 0.82 0.85 0.86 0.87 0.90 0.95 0.96 1.01 1.07 1.10 1.18 1.17 1.13
1.23 1.14 1.13 1.20 1.17 1.18 1.27 1.20 1.05 0.97 0.82 0.93 1.08 1.16 1.15 1.32 1.40 1.47 1.48 1.45 1.37 1.24 1.08 0.93 0.88 0.85 0.85 0.87 0.88 0.90 0.92 0.95 1.02 1.07 1.11 1.13 1.11 1.08
1.11 1.14 1.13 1.21 1.17 1.23 1.19 1.00 0.96 1.01 0.98 0.89 1.00 1.07 1.13 1.25 1.34 1.38 1.43 1.44 1.42 1.31 1.19 1.04 0.89 0.91 0.91 0.89 0.90 0.91 0.94 0.93 0.96 0.99 1.02 1.11 1.11 1.10
1.21 1.12 1.14 1.19 1.12 1.08 1.06 1.04 1.05 1.06 1.05 0.98 0.95 1.08 1.16 1.22 1.30 1.37 1.38 1.41 1.41 1.36 1.26 1.12 1.00 0.93 0.95 0.96 0.94 0.94 0.96 0.99 0.99 1.01 1.04 1.12 1.12 1.15
1.20 1.18 1.13 1.07 1.09 1.06 1.04 1.00 1.02 1.02 1.03 0.99 1.01 1.05 1.12 1.21 1.28 1.25 1.24 1.35 1.30 1.31 1.29 1.19 1.10 1.02 1.01 0.99 0.99 0.98 0.98 1.00 1.01 1.03 1.04 1.11 1.13 1.13
1.16 1.08 1.06 1.07 1.04 1.04 0.96 0.96 1.01 0.97 0.96 0.95 0.97 0.99 1.02 1.05 1.14 1.23 1.22 1.24 1.24 1.29 1.21 1.16 1.12 1.12 1.08 1.07 1.06 1.06 1.03 1.02 1.03 1.04 1.05 1.10 1.10 1.08
0.98 0.96 1.01 1.02 1.01 0.97 0.93 0.94 0.98 0.98 0.97 0.98 1.02 1.00 0.97 1.08 1.17 1.18 1.17 1.09 1.03 1.20 1.17 1.11 1.17 1.15 1.14 1.11 1.08 1.09 1.05 1.03 1.03 1.04 1.06 1.07 1.06 1.05
0.93 0.94 0.95 0.96 0.95 0.92 0.90 0.89 0.93 0.98 1.03 1.10 1.11 1.08 1.04 1.14 1.18 1.17 1.14 1.14 1.13 1.15 1.13 1.05 1.11 1.08 1.12 1.12 1.07 1.05 1.04 1.04 1.05 1.04 1.04 1.04 1.01 0.97
0.94 0.94 0.93 0.91 0.92 0.93 0.91 0.86 0.90 0.91 0.96 1.11 1.15 1.18 1.21 1.23 1.23 1.25 1.21 1.19 1.15 1.14 1.15 0.98 1.03 1.00 1.04 1.04 1.03 0.99 0.99 0.98 0.98 1.00 1.00 0.97 0.94 0.92
0.94 0.94 0.88 0.91 0.92 0.94 0.92 0.85 0.82 0.81 0.85 0.98 1.09 1.13 1.19 1.24 1.29 1.27 1.11 1.07 1.01 1.02 1.08 1.01 0.95 0.93 0.95 0.94 0.95 0.94 0.94 0.96 0.96 0.96 0.94 0.92 0.88 0.86
0.87 0.88 0.88 0.88 0.91 0.92 0.89 0.85 0.77 0.75 0.77 0.87 0.99 1.05 1.11 1.14 1.18 1.19 1.17 1.06 1.01 0.95 1.01 0.98 0.93 0.91 0.81 0.88 0.88 0.91 0.89 0.92 0.90 0.90 0.87 0.85 0.84 0.81
0.78 0.79 0.83 0.83 0.84 0.86 0.86 0.84 0.79 0.79 0.77 0.79 0.84 0.89 0.97 1.01 1.03 1.06 1.08 1.08 1.01 0.98 1.03 1.00 0.91 0.89 0.85 0.80 0.82 0.85 0.85 0.85 0.83 0.83 0.81 0.79 0.77 0.75
0.73 0.73 0.74 0.75 0.78 0.80 0.81 0.83 0.81 0.80 0.78 0.75 0.74 0.79 0.82 0.85 0.91 0.94 0.97 1.00 1.00 0.97 0.98 0.98 0.90 0.88 0.83 0.78 0.75 0.77 0.78 0.78 0.76 0.74 0.73 0.72 0.69 0.64
0.66 0.67 0.71 0.72 0.73 0.74 0.75 0.75 0.75 0.75 0.74 0.71 0.68 0.68 0.76 0.81 0.85 0.87 0.88 0.90 0.92 0.90 0.90 0.91 0.89 0.86 0.82 0.76 0.74 0.71 0.69 0.69 0.70 0.68 0.67 0.65 0.62 0.59
0.55 0.59 0.62 0.64 0.65 0.66 0.67 0.68 0.68 0.68 0.68 0.67 0.65 0.67 0.70 0.71 0.75 0.78 0.77 0.77 0.77 0.77 0.79 0.82 0.82 0.79 0.73 0.72 0.68 0.64 0.64 0.60 0.63 0.62 0.61 0.58 0.54 0.50
0.42 0.48 0.50 0.52 0.53 0.57 0.59 0.59 0.60 0.61 0.60 0.62 0.62 0.62 0.62 0.64 0.65 0.67 0.68 0.69 0.67 0.66 0.67 0.69 0.71 0.71 0.69 0.66 0.61 0.60 0.58 0.58 0.58 0.55 0.52 0.48 0.50 0.52
0.27 0.28 0.31 0.36 0.42 0.45 0.47 0.49 0.52 0.53 0.54 0.54 0.55 0.56 0.56 0.57 0.58 0.60 0.60 0.61 0.58 0.58 0.59 0.60 0.60 0.59 0.58 0.58 0.59 0.54 0.54 0.52 0.50 0.50 0.51 0.48 0.45 0.45
0.18 0.19 0.20 0.23 0.27 0.30 0.35 0.42 0.43 0.45 0.48 0.48 0.49 0.49 0.50 0.51 0.52 0.52 0.53 0.53 0.52 0.52 0.52 0.53 0.53 0.52 0.48 0.45 0.49 0.53 0.48 0.48 0.48 0.45 0.42 0.38 0.35 0.34
0.13 0.13 0.14 0.14 0.14 0.17 0.21 0.25 0.30 0.37 0.41 0.42 0.43 0.44 0.45 0.45 0.45 0.46 0.46 0.47 0.46 0.46 0.46 0.47 0.47 0.47 0.45 0.43 0.43 0.44 0.46 0.41 0.38 0.35 0.32 0.30 0.29 0.28
0.12 0.11 0.12 0.12 0.13 0.13 0.14 0.14 0.15 0.16 0.20 0.27 0.35 0.39 0.40 0.40 0.39 0.40 0.40 0.41 0.40 0.39 0.37 0.37 0.37 0.39 0.39 0.38 0.34 0.33 0.32 0.29 0.28 0.26 0.25 0.23 0.22 0.21
0.11 0.11 0.11 0.12 0.12 0.12 0.12 0.13 0.13 0.13 0.14 0.14 0.15 0.17 0.20 0.25 0.28 0.29 0.30 0.29 0.29 0.28 0.28 0.28 0.29 0.28 0.28 0.27 0.26 0.25 0.24 0.23 0.22 0.20 0.19 0.18 0.18 0.17
0.10 0.10 0.11 0.11 0.11 0.11 0.11 0.11 0.11 0.11 0.11 0.12 0.13 0.13 0.14 0.15 0.16 0.17 0.20 0.21 0.21 0.21 0.21 0.21 0.21 0.21 0.21 0.21 0.20 0.19 0.17 0.17 0.17 0.16 0.18 0.16 0.15 0.15

GFSNE_prec_pwat_117.txt.gz
Precipitable_Water
1.26 1.33 1.25 1.25 1.28 1.20 1.24 1.18 1.05 0.83 0.86 1.01 1.02 1.13 1.12 1.12 1.16 1.23 1.38 1.48 1.52 1.48 1.32 1.29 1.09 1.01 1.02 1.04 0.97 0.84 0.81 0.78 0.81 0.83 0.89 0.94 1.00 1.04
1.23 1.24 1.28 1.34 1.38 1.26 1.21 1.22 1.16 1.05 0.87 1.08 1.08 1.06 1.10 1.10 1.21 1.22 1.30 1.39 1.50 1.48 1.40 1.35 1.22 1.01 1.02 1.06 0.99 0.88 0.84 0.82 0.81 0.83 0.85 0.93 0.98 1.06
1.28 1.30 1.27 1.36 1.31 1.25 1.18 1.21 1.16 1.11 0.94 1.05 1.08 1.08 1.03 1.09 1.17 1.24 1.27 1.35 1.44 1.47 1.43 1.35 1.26 1.05 1.03 1.02 0.96 0.92 0.91 0.88 0.85 0.86 0.89 0.94 0.99 1.04
1.30 1.28 1.29 1.32 1.31 1.18 1.14 1.15 1.12 1.16 1.11 0.94 0.95 0.97 1.01 1.10 1.15 1.12 1.18 1.31 1.37 1.44 1.46 1.40 1.31 1.19 1.04 0.96 0.92 0.90 0.93 0.90 0.88 0.90 0.93 0.99 1.09 1.11
1.29 1.28 1.33 1.34 1.25 1.15 1.19 1.17 1.16 1.19 1.14 1.03 0.94 1.02 1.08 1.10 1.08 1.14 1.17 1.24 1.33 1.43 1.46 1.44 1.36 1.25 1.15 0.97 0.93 0.89 0.91 0.91 0.91 0.89 0.90 0.93 1.00 1.04
1.35 1.38 1.32 1.37 1.24 1.14 1.12 1.12 1.11 1.09 1.06 1.07 0.96 0.90 0.96 1.05 1.08 1.04 1.03 1.18 1.20 1.36 1.41 1.44 1.39 1.31 1.25 1.12 1.02 0.95 0.93 0.95 0.96 0.95 0.92 0.92 0.94 0.98
1.25 1.26 1.28 1.23 1.16 1.16 1.07 1.01 1.01 0.98 0.99 0.96 0.88 0.90 0.89 0.91 0.92 1.04 1.07 1.10 1.17 1.27 1.30 1.33 1.36 1.35 1.28 1.23 1.15 1.08 1.01 1.01 0.99 0.98 0.99 0.99 0.98 1.00
1.13 1.15 1.15 1.18 1.15 1.08 1.03 0.98 0.96 0.92 0.90 0.85 0.85 0.84 0.88 0.96 1.04 1.10 1.11 1.01 0.91 1.20 1.25 1.21 1.30 1.28 1.29 1.26 1.21 1.14 1.08 1.03 1.01 1.00 1.01 1.03 1.01 1.01
1.06 1.07 1.06 1.05 1.06 1.03 1.01 0.99 0.96 0.94 0.90 0.86 0.82 0.85 0.89 1.02 1.09 1.09 1.11 1.04 0.98 1.14 1.19 1.10 1.17 1.17 1.24 1.24 1.23 1.19 1.18 1.13 1.10 1.06 1.05 1.04 1.04 1.01
0.99 0.99 1.00 1.00 1.01 0.98 0.97 0.95 0.93 0.92 0.90 0.90 0.88 0.87 0.90 0.94 1.04 1.16 1.18 1.13 1.10 1.10 1.12 1.01 1.09 1.06 1.14 1.15 1.16 1.17 1.17 1.15 1.12 1.10 1.05 1.05 1.00 1.00
0.92 0.92 0.94 0.93 0.93 0.94 0.94 0.93 0.90 0.89 0.91 0.90 0.89 0.87 0.87 0.88 0.95 1.10 1.11 1.03 0.94 0.97 1.05 1.03 1.01 1.00 1.03 1.03 1.05 1.08 1.06 1.04 1.04 1.03 1.02 0.98 0.96 0.94
0.84 0.84 0.85 0.86 0.89 0.93 0.91 0.90 0.85 0.84 0.85 0.86 0.84 0.83 0.82 0.83 0.85 0.97 1.06 1.03 1.00 0.94 1.02 0.99 0.97 0.96 0.87 0.94 0.95 0.98 0.97 0.95 0.94 0.95 0.94 0.89 0.88 0.87
0.78 0.79 0.81 0.84 0.85 0.87 0.87 0.86 0.84 0.85 0.82 0.81 0.81 0.80 0.80 0.79 0.79 0.83 0.98 1.01 0.99 0.98 1.05 1.03 0.95 0.94 0.90 0.85 0.88 0.90 0.89 0.87 0.86 0.86 0.86 0.86 0.83 0.84
0.70 0.73 0.75 0.76 0.77 0.79 0.80 0.79 0.80 0.80 0.78 0.75 0.75 0.75 0.75 0.76 0.76 0.76 0.81 0.92 0.97 0.98 1.01 1.00 0.93 0.89 0.86 0.82 0.80 0.83 0.82 0.81 0.80 0.79 0.79 0.81 0.78 0.79
0.56 0.60 0.61 0.63 0.66 0.68 0.70 0.72 0.73 0.71 0.70 0.69 0.68 0.69 0.71 0.72 0.74 0.74 0.75 0.79 0.86 0.90 0.93 0.94 0.91 0.88 0.83 0.79 0.78 0.77 0.74 0.73 0.73 0.72 0.72 0.72 0.71 0.70
0.37 0.39 0.41 0.46 0.51 0.55 0.57 0.60 0.62 0.64 0.63 0.64 0.63 0.64 0.67 0.68 0.68 0.70 0.69 0.70 0.71 0.74 0.82 0.85 0.85 0.84 0.77 0.75 0.72 0.71 0.69 0.65 0.68 0.68 0.67 0.66 0.66 0.66
0.27 0.28 0.28 0.30 0.31 0.34 0.38 0.44 0.48 0.51 0.55 0.59 0.59 0.60 0.60 0.60 0.61 0.63 0.63 0.63 0.62 0.63 0.66 0.72 0.75 0.76 0.74 0.70 0.65 0.64 0.63 0.62 0.63 0.62 0.61 0.59 0.60 0.58
0.20 0.19 0.20 0.21 0.23 0.25 0.27 0.29 0.32 0.35 0.42 0.48 0.51 0.53 0.53 0.54 0.54 0.56 0.57 0.56 0.56 0.57 0.58 0.61 0.63 0.63 0.63 0.62 0.63 0.59 0.58 0.57 0.57 0.57 0.56 0.53 0.52 0.55
0.15 0.16 0.16 0.16 0.17 0.19 0.21 0.23 0.25 0.29 0.32 0.33 0.37 0.43 0.46 0.48 0.49 0.49 0.49 0.50 0.49 0.50 0.51 0.53 0.54 0.54 0.51 0.49 0.53 0.57 0.52 0.52 0.52 0.51 0.51 0.49 0.48 0.49
0.13 0.13 0.13 0.14 0.14 0.14 0.16 0.16 0.19 0.22 0.25 0.27 0.29 0.31 0.34 0.37 0.40 0.41 0.42 0.43 0.44 0.44 0.44 0.46 0.47 0.47 0.46 0.45 0.45 0.47 0.51 0.48 0.47 0.45 0.44 0.43 0.41 0.40
0.12 0.12 0.12 0.13 0.13 0.13 0.14 0.15 0.15 0.15 0.16 0.17 0.21 0.24 0.27 0.28 0.29 0.32 0.36 0.38 0.38 0.38 0.38 0.38 0.41 0.45 0.44 0.45 0.42 0.41 0.43 0.43 0.42 0.39 0.36 0.34 0.33 0.32
0.11 0.11 0.12 0.12 0.12 0.12 0.12 0.13 0.13 0.13 0.13 0.14 0.15 0.15 0.16 0.18 0.19 0.22 0.25 0.26 0.28 0.31 0.32 0.33 0.34 0.35 0.36 0.36 0.34 0.34 0.33 0.32 0.30 0.28 0.27 0.29 0.28 0.26
0.10 0.10 0.11 0.11 0.10 0.10 0.11 0.11 0.11 0.11 0.12 0.13 0.12 0.13 0.14 0.14 0.15 0.15 0.15 0.14 0.14 0.16 0.20 0.23 0.26 0.27 0.27 0.27 0.27 0.25 0.25 0.25 0.25 0.24 0.23 0.22 0.20 0.19

GFSNE_prec_pwat_123.txt.gz
Precipitable_Water
1.29 1.27 1.45 1.21 1.14 1.14 1.14 1.07 0.91 0.79 0.85 1.04 1.15 1.28 1.31 1.38 1.35 1.31 1.26 1.26 1.18 1.09 1.08 1.21 1.28 1.34 1.45 1.52 1.47 1.35 1.07 0.92 0.92 0.84 0.81 0.82 0.83 0.82
1.37 1.39 1.36 1.26 1.17 1.16 1.14 1.14 1.08 0.96 0.83 1.02 1.11 1.25 1.36 1.33 1.37 1.35 1.30 1.28 1.21 1.12 1.09 1.14 1.22 1.29 1.39 1.48 1.51 1.45 1.34 1.06 0.96 0.92 0.89 0.87 0.84 0.83
1.44 1.27 1.13 1.19 1.14 1.17 1.18 1.18 1.13 1.05 0.94 1.05 1.21 1.29 1.36 1.28 1.32 1.35 1.33 1.27 1.22 1.14 1.11 1.14 1.17 1.23 1.29 1.37 1.49 1.49 1.43 1.32 1.08 0.98 0.94 0.92 0.90 0.85
1.31 1.20 1.09 1.17 1.12 1.19 1.18 1.15 1.14 1.17 1.08 1.00 1.19 1.28 1.32 1.32 1.29 1.28 1.23 1.29 1.20 1.15 1.15 1.17 1.15 1.15 1.18 1.26 1.39 1.49 1.44 1.38 1.25 1.10 1.01 0.96 0.96 0.91
1.29 1.22 1.12 1.15 1.15 1.21 1.24 1.12 1.15 1.19 1.16 1.09 1.08 1.19 1.27 1.29 1.22 1.20 1.18 1.21 1.20 1.20 1.16 1.15 1.14 1.14 1.14 1.15 1.26 1.41 1.42 1.40 1.33 1.16 1.08 1.04 1.03 0.98
1.25 1.28 1.16 1.15 1.14 1.22 1.24 1.17 1.14 1.13 1.15 1.12 1.12 1.16 1.19 1.21 1.22 1.08 1.09 1.14 1.11 1.19 1.12 1.12 1.14 1.13 1.15 1.15 1.21 1.32 1.33 1.37 1.41 1.38 1.32 1.24 1.08 1.03
1.15 1.08 1.02 1.05 1.11 1.16 1.23 1.19 1.21 1.15 1.12 1.08 1.04 1.06 1.10 1.09 1.09 1.11 1.05 1.03 1.04 1.06 0.99 1.03 1.10 1.06 1.12 1.15 1.16 1.25 1.31 1.32 1.36 1.33 1.28 1.16 1.09 1.07
1.05 1.04 0.97 1.10 1.10 1.15 1.11 1.12 1.13 1.12 1.08 1.06 1.05 1.02 1.06 1.01 1.00 0.97 0.95 0.91 0.84 1.07 1.00 0.96 1.06 1.04 1.13 1.16 1.19 1.25 1.20 1.33 1.37 1.38 1.34 1.30 1.22 1.14
0.98 0.96 1.02 0.96 1.03 1.04 1.08 1.02 1.05 1.06 1.11 1.09 1.02 1.04 0.99 1.01 0.93 0.88 0.86 0.84 0.85 0.98 0.94 0.90 0.97 0.96 1.03 1.10 1.14 1.18 1.16 1.22 1.31 1.36 1.36 1.33 1.28 1.21
0.91 0.94 0.90 0.91 0.98 0.95 0.98 0.98 0.96 1.00 1.00 1.02 1.00 0.98 0.99 0.98 0.95 0.90 0.87 0.83 0.89 0.95 0.98 0.81 0.94 0.89 0.92 0.98 1.09 1.16 1.15 1.14 1.18 1.31 1.32 1.34 1.29 1.24
0.86 0.84 0.85 0.80 0.87 0.93 0.88 0.88 0.91 0.92 0.94 0.96 0.95 0.95 0.95 0.95 0.94 0.90 0.84 0.78 0.77 0.84 0.92 0.88 0.87 0.85 0.86 0.86 1.00 1.09 1.12 1.12 1.11 1.20 1.26 1.25 1.26 1.23
0.74 0.76 0.78 0.81 0.78 0.80 0.85 0.84 0.82 0.81 0.83 0.84 0.87 0.89 0.89 0.88 0.90 0.90 0.86 0.80 0.78 0.78 0.84 0.81 0.80 0.79 0.73 0.78 0.82 0.98 1.03 1.03 1.00 1.07 1.12 1.16 1.20 1.16
0.49 0.54 0.60 0.65 0.69 0.73 0.75 0.75 0.75 0.78 0.77 0.77 0.78 0.78 0.80 0.80 0.83 0.84 0.85 0.85 0.81 0.80 0.85 0.83 0.79 0.77 0.73 0.70 0.72 0.79 0.92 0.96 0.96 0.94 0.95 0.96 1.02 1.03
0.33 0.37 0.38 0.40 0.43 0.45 0.50 0.56 0.62 0.65 0.67 0.69 0.71 0.71 0.72 0.75 0.77 0.80 0.83 0.83 0.84 0.81 0.83 0.82 0.78 0.75 0.70 0.66 0.64 0.70 0.76 0.87 0.91 0.91 0.90 0.87 0.88 0.89
0.27 0.30 0.32 0.33 0.33 0.35 0.36 0.37 0.40 0.42 0.44 0.47 0.51 0.56 0.61 0.66 0.70 0.73 0.75 0.76 0.76 0.79 0.81 0.80 0.79 0.77 0.72 0.66 0.64 0.64 0.65 0.71 0.80 0.81 0.83 0.82 0.81 0.81
0.19 0.19 0.21 0.22 0.23 0.25 0.28 0.29 0.32 0.34 0.34 0.34 0.35 0.40 0.44 0.47 0.50 0.54 0.55 0.59 0.61 0.64 0.69 0.72 0.74 0.74 0.70 0.69 0.66 0.62 0.64 0.61 0.67 0.72 0.75 0.75 0.76 0.76
0.15 0.15 0.14 0.15 0.14 0.16 0.18 0.20 0.23 0.26 0.28 0.30 0.32 0.34 0.33 0.34 0.36 0.39 0.40 0.43 0.43 0.46 0.51 0.59 0.64 0.66 0.67 0.66 0.62 0.62 0.62 0.61 0.62 0.61 0.64 0.64 0.66 0.67
0.11 0.10 0.11 0.12 0.12 0.13 0.13 0.14 0.16 0.17 0.20 0.22 0.24 0.26 0.28 0.30 0.32 0.32 0.33 0.33 0.32 0.34 0.37 0.42 0.47 0.52 0.55 0.57 0.60 0.56 0.57 0.57 0.58 0.59 0.58 0.54 0.55 0.59
0.10 0.10 0.10 0.10 0.10 0.11 0.12 0.12 0.13 0.14 0.15 0.16 0.17 0.19 0.21 0.23 0.25 0.26 0.30 0.30 0.30 0.31 0.32 0.35 0.35 0.36 0.37 0.40 0.48 0.55 0.51 0.53 0.54 0.52 0.52 0.52 0.50 0.51
0.10 0.10 0.09 0.09 0.09 0.09 0.10 0.10 0.11 0.11 0.12 0.12 0.13 0.14 0.16 0.18 0.18 0.20 0.22 0.24 0.26 0.28 0.29 0.31 0.32 0.32 0.32 0.32 0.34 0.40 0.49 0.47 0.48 0.47 0.47 0.49 0.49 0.49
0.08 0.08 0.09 0.09 0.09 0.09 0.09 0.09 0.10 0.10 0.10 0.10 0.11 0.12 0.13 0.14 0.14 0.15 0.16 0.18 0.21 0.23 0.24 0.25 0.29 0.33 0.33 0.34 0.31 0.32 0.36 0.42 0.43 0.42 0.43 0.42 0.41 0.41
0.09 0.08 0.09 0.08 0.08 0.08 0.09 0.08 0.08 0.08 0.08 0.09 0.10 0.11 0.12 0.13 0.13 0.13 0.13 0.12 0.14 0.17 0.21 0.24 0.27 0.28 0.28 0.27 0.26 0.27 0.29 0.32 0.36 0.38 0.39 0.40 0.38 0.35
0.09 0.08 0.09 0.08 0.08 0.07 0.08 0.07 0.07 0.06 0.07 0.08 0.09 0.10 0.11 0.11 0.12 0.12 0.13 0.12 0.12 0.11 0.12 0.16 0.22 0.24 0.24 0.24 0.24 0.25 0.25 0.27 0.28 0.29 0.31 0.33 0.35 0.35